Погода в Кубатлы

Азербайджан     39°20′31″N   46°34′56″E
темп.,
°C
ветер,
м/с
пор.,
м/с
влажн.,
%
обл.,
%
осадки,
мм/ч
давл.,
гПа
погр.,
м
11 мая, вт
вт1101:00+5з227894 0.0 102281
04:00+4з227917 0.0 102140
07:00+6юз01768 0.0 1021105
10:00+9в226117 0.0 1019987
13:00+13в32573 0.0 10161002
16:00+15в32582 0.0 1014930
19:00+12вюв23745 0.0 1015260
22:00+7з218710 0.0 101719
12 мая, ср
ср1201:00+7зсз11883 0.0 101711
04:00+7з11850 0.0 101612
07:00+10сз00760 0.0 101643
10:00+15в21660 0.0 1015492
13:00+19в32570 0.0 1014730
16:00+20в32570 0.0 1013670
19:00+16вюв2371100 0.1 1014100
22:00+13зсз227411 0.1 101718
13 мая, чт
чт1301:00+12з32775 0.0 101620
04:00+12зсз22665 0.0 101514
07:00+14ссз116627 0.0 101720
10:00+18в216026 0.0 1016511
13:00+21в32532 0.1 1015810
16:00+22в225319 0.2 1014797
19:00+19юв116813 0.1 101522
22:00+15з327576 0.1 101720
14 мая, пт
пт1401:00+14з325943 0.0 101719
04:00+14з325235 0.0 101719
07:00+15зсз22614 0.0 101728
10:00+21всв21536 0.0 1017660
13:00+23в324854 0.0 10161135
16:00+23вюв324712 0.0 10151319
19:00+20вюв12663 0.0 101629
22:00+16зюз326944 0.1 101719
15 мая, сб
сб1501:00+15з33705 0.1 101634
04:00+14з33700 0.1 101629
07:00+16з22640 0.0 101640
10:00+21в21480 0.0 1016797
13:00+23в32390 0.0 10151442
16:00+23вюв33380 0.0 10141530
19:00+20в1153100 0.0 101512
22:00+16з33545 0.0 101724